Location: Banff
(51.1667°N, 115.5667°W)
Time: 11:20:03
(UTC+00:00)

SR - Pass Details

Date: 30 November 2020
Orbit: 575 x 880 km, 66.7° (Epoch: 20 January)

Event Time Altitude Azimuth Distance (km) Brightness Sun altitude
Rises 02:08:47 0° 209° (SSW) 2,813 ? -22.6°
Reaches altitude 10° 02:10:57 10° 208° (SSW) 1,940 ? -22.9°
Enters shadow 02:15:05 70° 148° (SSE) 670 ? -23.5°
